Погода в Шире

Эфиопия     14°06′18″N   38°16′42″E
темп.,
°C
ветер,
м/с
пор.,
м/с
влажн.,
%
обл.,
%
осадки,
мм/ч
давл.,
гПа
погр.,
м
23 мая, пн
пн2300:00+26сз1235100 0.0 1012227
03:00+23ююз11435 0.0 101114
06:00+21вюв115525 0.0 101213
09:00+28св13300 0.0 10111449
12:00+32сз231423 0.0 10084096
15:00+33зсз3313100 0.0 10054193
18:00+31зсз6617100 0.0 10052524
21:00+28с242596 0.0 1009202
24 мая, вт
вт2400:00+25зюз24355 0.0 1011482
03:00+23ю11423 0.0 101012
06:00+22в114227 0.0 101013
09:00+28вюв22245 0.0 10101101
12:00+33юз33133 0.0 10083925
15:00+34з4312100 0.0 10054333
18:00+31сз56175 0.0 10061228
21:00+27ссз222897 0.0 101074
25 мая, ср
ср2500:00+25ю113215 0.0 101115
03:00+23сз11350 0.0 101011
06:00+22всв11362 0.0 101211
09:00+28зсз33220 0.0 10121466
12:00+32зсз461538 0.0 10104021
15:00+32сз5316100 0.0 10083727
18:00+31ссз441831 0.0 10081000
21:00+28ссз1222100 0.0 101154
26 мая, чт
чт2600:00+26юв112528 0.0 101211
03:00+24ююз11295 0.0 101112
06:00+23всв113474 0.0 101211
09:00+29зюз332088 0.0 10121740
12:00+32сз551698 0.0 10103899
15:00+32ссз641789 0.0 10083510
18:00+28зюз8828100 0.0 10101132
21:00+26св133252 0.0 1012150
27 мая, пт
пт2700:00+26вюв013198 0.0 101222
03:00+24з113634 0.0 101011
06:00+22ююз01400 0.0 101211
09:00+29зюз33200 0.0 10121574
12:00+32сз761695 0.0 10103705
15:00+33с431599 0.0 10073712
18:00+31з651792 0.0 10083508
21:00+26св222444 0.0 101121